GW2055 Weather Reports


Display with metric or nautical units.
time (UTC)temp
F
wind
direction
speed
MPH
gust
MPH
rain 1hr
in
rain 24hr
in
rain mn
in
humidity
%
barometer
mb
20260905064620 79 0 0.0 0.0 0.00 0.00 0.00 73 1013.1
20260905063100 79 0 0.0 0.0 0.00 0.00 0.00 73 1013.1
20260905061607 80 0 0.0 0.0 0.00 0.00 0.00 73 1013.1
20260905060105 80 0 0.0 0.0 0.00 0.00 0.00 72 1013.3
20260905054709 80 0 0.0 0.0 0.00 0.00 0.00 72 1013.1
20260905053102 80 0 0.0 0.0 0.00 0.00 0.00 71 1013.2
20260905051603 81 0 0.0 0.0 0.00 0.00 0.00 71 1013.3
20260905050105 81 0 0.0 0.0 0.00 0.00 0.00 70 1013.2
20260905044609 82 0 0.0 0.0 0.00 0.00 0.00 69 1013.1
20260905043105 82 0 0.0 0.0 0.00 0.00 0.00 68 1013.2
20260905041603 83 0 0.0 0.0 0.00 0.00 0.00 67 1013.1
20260905040112 83 0 0.0 0.0 0.00 0.00 0.00 66 1013.2
20260905034603 84 0 0.0 0.0 0.00 0.00 0.00 64 1013.1
20260905033058 85 0 0.0 0.0 0.00 0.00 0.00 61 1013.0
20260905031600 86 0 0.0 0.0 0.00 0.00 0.00 58 1012.9
20260905024612 87 0 0.0 0.0 0.00 0.00 0.00 54 1012.8
20260905023059 88 0 0.0 1.0 0.00 0.00 0.00 53 1012.5
20260905021559 89 0 0.0 1.0 0.00 0.00 0.00 51 1012.2
20260905020103 90 0 0.0 2.0 0.00 0.00 0.00 50 1011.9
20260905014600 90 123 0.0 3.0 0.00 0.00 0.00 49 1011.7
20260905013105 91 0 0.0 3.0 0.00 0.00 0.00 48 1011.5
20260905011605 92 0 0.0 3.0 0.00 0.00 0.00 47 1011.4
20260905010109 93 0 0.0 3.0 0.00 0.00 0.00 46 1011.4
20260905004600 94 132 0.0 3.0 0.00 0.00 0.00 45 1011.3
20260905003100 95 0 1.0 5.0 0.00 0.00 0.00 44 1011.4
20260905001605 96 115 1.0 6.0 0.00 0.00 0.00 43 1011.4
20260905000106 97 92 1.0 6.0 0.00 0.00 0.00 43 1011.4
20260904234605 97 0 1.0 9.0 0.00 0.00 0.00 42 1011.4
20260904233105 97 82 3.0 9.0 0.00 0.00 0.00 43 1011.3
20260904231608 98 0 1.0 9.0 0.00 0.00 0.00 42 1011.4
20260904230113 98 50 2.0 10.0 0.00 0.00 0.00 42 1011.3
20260904224606 99 155 3.0 8.0 0.00 0.00 0.00 41 1011.3
20260904223059 100 109 1.0 8.0 0.00 0.00 0.00 40 1011.2
20260904221608 99 30 2.0 11.0 0.00 0.00 0.00 41 1011.2
20260904220104 100 136 2.0 10.0 0.00 0.00 0.00 41 1011.2
20260904214603 100 116 1.0 10.0 0.00 0.00 0.00 41 1011.4
20260904213104 100 0 2.0 10.0 0.00 0.00 0.00 41 1011.5
20260904211603 100 352 2.0 9.0 0.00 0.00 0.00 40 1011.7
20260904204600 101 101 1.0 7.0 0.00 0.00 0.00 40 1011.9
20260904203104 100 0 2.0 9.0 0.00 0.00 0.00 40 1012.0
20260904201603 101 0 1.0 7.0 0.00 0.00 0.00 40 1012.2
20260904200114 100 103 1.0 8.0 0.00 0.00 0.00 42 1012.5
20260904194558 100 0 1.0 8.0 0.00 0.00 0.00 43 1012.4
20260904193106 99 0 2.0 8.0 0.00 0.00 0.00 42 1012.6
20260904191600 100 122 1.0 9.0 0.00 0.00 0.00 43 1012.8
20260904184604 99 246 0.0 7.0 0.00 0.00 0.00 44 1013.1
20260904183105 98 198 3.0 9.0 0.00 0.00 0.00 43 1013.4
20260904181601 98 234 0.0 8.0 0.00 0.00 0.00 44 1013.6
20260904180100 98 111 3.0 10.0 0.00 0.00 0.00 44 1013.7
20260904174601 98 49 1.0 6.0 0.00 0.00 0.00 45 1013.8
20260904173110 96 0 2.0 7.0 0.00 0.00 0.00 45 1014.1
20260904171600 96 192 2.0 8.0 0.00 0.00 0.00 45 1014.2
20260904170057 96 106 2.0 9.0 0.00 0.00 0.00 46 1014.3
20260904164602 95 90 1.0 7.0 0.00 0.00 0.00 46 1014.5
20260904163104 94 106 3.0 10.0 0.00 0.00 0.00 48 1014.5
20260904161606 94 105 1.0 8.0 0.00 0.00 0.00 48 1014.6
20260904160105 93 157 1.0 10.0 0.00 0.00 0.00 50 1014.5
20260904154612 92 69 1.0 8.0 0.00 0.00 0.00 51 1014.6
20260904153101 91 82 1.0 6.0 0.00 0.00 0.00 53 1014.7
20260904151559 90 112 0.0 7.0 0.00 0.00 0.00 56 1014.6
20260904144603 86 81 2.0 7.0 0.00 0.00 0.00 63 1014.6
20260904143059 85 0 0.0 4.0 0.00 0.00 0.00 67 1014.7
20260904141602 84 124 1.0 6.0 0.00 0.00 0.00 69 1014.7
20260904140110 82 0 0.0 3.0 0.00 0.00 0.00 73 1014.6
20260904134616 81 83 1.0 4.0 0.00 0.00 0.00 75 1014.6
20260904133106 79 0 0.0 4.0 0.00 0.00 0.00 78 1014.7
20260904131603 78 105 0.0 3.0 0.00 0.00 0.00 79 1014.5
20260904130106 76 0 0.0 2.0 0.00 0.00 0.00 82 1014.4
20260904124614 75 0 0.0 1.0 0.00 0.00 0.00 84 1014.3
20260904123103 74 0 0.0 0.0 0.00 0.00 0.00 84 1014.3
20260904121611 74 0 0.0 0.0 0.00 0.00 0.00 84 1014.2
20260904120105 74 0 0.0 0.0 0.00 0.00 0.00 84 1014.2
20260904114605 74 0 0.0 0.0 0.00 0.00 0.00 83 1014.0
20260904113111 74 0 0.0 0.0 0.00 0.00 0.00 83 1013.9
20260904111557 75 0 0.0 0.0 0.00 0.00 0.00 83 1013.8
20260904110106 74 0 0.0 0.0 0.00 0.00 0.00 82 1013.8
20260904104600 75 0 0.0 0.0 0.00 0.00 0.00 82 1013.7
20260904103059 75 0 0.0 0.0 0.00 0.00 0.00 81 1013.8
20260904101609 75 0 0.0 0.0 0.00 0.00 0.00 81 1013.7
20260904100106 76 0 0.0 0.0 0.00 0.00 0.00 80 1013.6
20260904094609 76 0 0.0 0.0 0.00 0.00 0.00 80 1013.5
20260904093102 76 0 0.0 0.0 0.00 0.00 0.00 80 1013.3
20260904091604 76 0 0.0 2.0 0.00 0.00 0.00 80 1013.2
20260904090108 76 0 0.0 2.0 0.00 0.00 0.00 80 1013.1
20260904084601 76 0 0.0 0.0 0.00 0.00 0.00 80 1013.1
20260904083149 76 0 0.0 0.0 0.00 0.00 0.00 79 1013.0
20260904081609 77 0 0.0 0.0 0.00 0.00 0.00 79 1012.9
20260904080058 77 0 0.0 0.0 0.00 0.00 0.00 78 1013.0
20260904074602 77 0 0.0 0.0 0.00 0.00 0.00 77 1012.9
20260904073108 77 0 0.0 0.0 0.00 0.00 0.00 77 1012.8
20260904071621 78 0 0.0 1.0 0.00 0.00 0.00 76 1012.8
20260904070116 78 0 0.0 1.0 0.00 0.00 0.00 76 1012.9